• In Netherlands
  • List of Countries
  • For 7 days
  • Water Temperature
  • Satellite Maps
  • Weather Map
  • Weather Widgets
  • user-avatar
    Login

    Hourly Weather Fier

    Today, 29 March, Wednesday

    Time Temperature Precipitation Wind Pressure Humidity
    00:00 +10°C° 0 mm 3 mps 764 mmHg 63%
    01:00 +10°C° 0 mm 3 mps 764 mmHg 62%
    02:00 +10°C° 0 mm 3 mps 764 mmHg 61%
    03:00 +9°C° 0 mm 3 mps 764 mmHg 60%
    04:00 +9°C° 0 mm 3 mps 764 mmHg 60%
    05:00 +10°C° 0 mm 3 mps 764 mmHg 58%
    06:00 +12°C° 0 mm 2 mps 764 mmHg 56%
    07:00 +13°C° 0 mm 2 mps 764 mmHg 54%
    08:00 +15°C° 0 mm 2 mps 764 mmHg 47%
    09:00 +17°C° 0 mm 2 mps 764 mmHg 41%
    10:00 +20°C° 0 mm 2 mps 764 mmHg 34%
    11:00 +21°C° 0 mm 3 mps 763 mmHg 33%
    12:00 +21°C° 0 mm 3 mps 763 mmHg 31%
    13:00 +22°C° 0 mm 4 mps 763 mmHg 30%
    14:00 +22°C° 0 mm 4 mps 763 mmHg 33%
    15:00 +21°C° 0 mm 4 mps 762 mmHg 36%
    16:00 +21°C° 0 mm 5 mps 762 mmHg 39%
    17:00 +18°C° 0 mm 4 mps 762 mmHg 49%
    18:00 +15°C° 0 mm 4 mps 762 mmHg 60%
    19:00 +12°C° 0 mm 3 mps 763 mmHg 70%
    20:00 +12°C° 0 mm 3 mps 763 mmHg 69%
    21:00 +11°C° 0 mm 3 mps 763 mmHg 68%
    22:00 +11°C° 0 mm 3 mps 763 mmHg 67%
    23:00 +11°C° 0 mm 3 mps 763 mmHg 65%

    Tomorrow, 30 March, Thursday

    Time Temperature Precipitation Wind Pressure Humidity
    00:00 +12°C° 0 mm 2 mps 764 mmHg 63%
    01:00 +12°C° 0 mm 2 mps 764 mmHg 61%
    02:00 +12°C° 0 mm 2 mps 763 mmHg 60%
    03:00 +10°C° 0 mm 3 mps 763 mmHg 58%
    04:00 +10°C° 0 mm 3 mps 763 mmHg 57%
    05:00 +11°C° 0 mm 3 mps 763 mmHg 55%
    06:00 +12°C° 0 mm 3 mps 763 mmHg 54%
    07:00 +14°C° 0 mm 3 mps 764 mmHg 53%
    08:00 +17°C° 0 mm 3 mps 763 mmHg 48%
    09:00 +19°C° 0 mm 3 mps 763 mmHg 43%
    10:00 +21°C° 0 mm 3 mps 763 mmHg 38%
    11:00 +22°C° 0 mm 3 mps 763 mmHg 36%
    12:00 +23°C° 0 mm 4 mps 763 mmHg 35%
    13:00 +25°C° 0 mm 4 mps 763 mmHg 33%
    14:00 +23°C° 0 mm 5 mps 763 mmHg 36%
    15:00 +23°C° 0 mm 5 mps 762 mmHg 39%
    16:00 +22°C° 0 mm 6 mps 762 mmHg 42%
    17:00 +20°C° 0 mm 6 mps 763 mmHg 51%
    18:00 +16°C° 0 mm 5 mps 763 mmHg 61%
    19:00 +14°C° 0 mm 5 mps 763 mmHg 70%
    20:00 +14°C° 0 mm 4 mps 764 mmHg 70%
    21:00 +14°C° 0 mm 4 mps 764 mmHg 69%
    22:00 +14°C° 0 mm 3 mps 764 mmHg 68%
    23:00 +13°C° 0 mm 3 mps 764 mmHg 68%

    Day after tomorrow, 31 March, Friday

    Time Temperature Precipitation Wind Pressure Humidity
    00:00 +13°C° 0 mm 3 mps 764 mmHg 67%
    01:00 +13°C° 0 mm 3 mps 764 mmHg 67%
    02:00 +13°C° 0 mm 3 mps 764 mmHg 68%
    03:00 +12°C° 0 mm 3 mps 764 mmHg 70%
    04:00 +12°C° 0 mm 3 mps 764 mmHg 71%
    05:00 +13°C° 0 mm 3 mps 764 mmHg 68%
    06:00 +14°C° 0 mm 3 mps 764 mmHg 66%
    07:00 +14°C° 0 mm 3 mps 765 mmHg 64%
    08:00 +17°C° 0 mm 3 mps 765 mmHg 57%
    09:00 +20°C° 0 mm 2 mps 765 mmHg 50%
    10:00 +23°C° 0 mm 2 mps 765 mmHg 43%
    11:00 +23°C° 0 mm 2 mps 764 mmHg 41%
    12:00 +24°C° 0 mm 3 mps 764 mmHg 39%
    13:00 +25°C° 0 mm 3 mps 764 mmHg 37%
    14:00 +24°C° 0 mm 3 mps 763 mmHg 39%
    15:00 +22°C° 0 mm 4 mps 763 mmHg 42%
    16:00 +22°C° 0 mm 4 mps 763 mmHg 44%
    17:00 +19°C° 0 mm 4 mps 763 mmHg 53%
    18:00 +17°C° 0 mm 3 mps 763 mmHg 62%
    19:00 +14°C° 0 mm 3 mps 763 mmHg 71%
    20:00 +15°C° 0 mm 2 mps 764 mmHg 72%
    21:00 +15°C° 0 mm 2 mps 764 mmHg 72%
    22:00 +14°C° 0 mm 2 mps 764 mmHg 73%
    23:00 +14°C° 0 mm 2 mps 764 mmHg 74%

    1 April, Saturday

    Time Temperature Precipitation Wind Pressure Humidity
    00:00 +14°C° 0 mm 2 mps 764 mmHg 74%
    01:00 +13°C° 0 mm 2 mps 764 mmHg 75%
    02:00 +13°C° 0 mm 2 mps 764 mmHg 75%
    03:00 +13°C° 0 mm 2 mps 764 mmHg 75%
    04:00 +13°C° 0 mm 2 mps 763 mmHg 76%
    05:00 +13°C° 0 mm 2 mps 763 mmHg 73%
    06:00 +14°C° 0 mm 2 mps 763 mmHg 70%
    07:00 +15°C° 0 mm 2 mps 764 mmHg 67%
    08:00 +17°C° 0 mm 2 mps 763 mmHg 60%
    09:00 +19°C° 0 mm 2 mps 763 mmHg 54%
    10:00 +21°C° 0 mm 2 mps 763 mmHg 48%
    11:00 +21°C° 0 mm 3 mps 763 mmHg 46%
    12:00 +21°C° 0 mm 4 mps 762 mmHg 45%
    13:00 +21°C° 0 mm 4 mps 762 mmHg 44%
    14:00 +21°C° 0.2 mm 4 mps 762 mmHg 48%
    15:00 +20°C° 0.2 mm 4 mps 761 mmHg 52%
    16:00 +19°C° 0.2 mm 4 mps 761 mmHg 56%
    17:00 +17°C° 0.2 mm 4 mps 761 mmHg 64%
    18:00 +16°C° 0.2 mm 3 mps 761 mmHg 71%
    19:00 +13°C° 0.2 mm 3 mps 762 mmHg 79%
    20:00 +13°C° 0.1 mm 3 mps 762 mmHg 80%
    21:00 +12°C° 0.1 mm 3 mps 762 mmHg 80%
    22:00 +12°C° 0.1 mm 3 mps 762 mmHg 81%
    23:00 +12°C° 0 mm 3 mps 762 mmHg 80%

    2 April, Sunday

    Time Temperature Precipitation Wind Pressure Humidity
    00:00 +12°C° 0 mm 3 mps 762 mmHg 80%
    01:00 +12°C° 0 mm 3 mps 762 mmHg 79%
    02:00 +11°C° 0 mm 3 mps 762 mmHg 80%
    03:00 +11°C° 0 mm 4 mps 762 mmHg 80%
    04:00 +11°C° 0 mm 4 mps 762 mmHg 80%
    05:00 +12°C° 0 mm 4 mps 762 mmHg 76%
    06:00 +13°C° 0 mm 4 mps 762 mmHg 73%
    07:00 +13°C° 0 mm 4 mps 762 mmHg 69%
    08:00 +15°C° 0 mm 4 mps 762 mmHg 61%
    09:00 +18°C° 0 mm 4 mps 762 mmHg 53%
    10:00 +20°C° 0 mm 3 mps 762 mmHg 45%
    11:00 +21°C° 0.1 mm 4 mps 762 mmHg 44%
    12:00 +21°C° 0.1 mm 5 mps 762 mmHg 43%
    13:00 +22°C° 0.1 mm 5 mps 761 mmHg 42%
    14:00 +21°C° 0.2 mm 5 mps 761 mmHg 47%
    15:00 +20°C° 0.2 mm 5 mps 761 mmHg 53%
    16:00 +19°C° 0.2 mm 6 mps 761 mmHg 58%
    17:00 +16°C° 0.1 mm 5 mps 761 mmHg 66%
    18:00 +15°C° 0.1 mm 4 mps 761 mmHg 73%
    19:00 +13°C° 0.1 mm 3 mps 761 mmHg 81%
    20:00 +13°C° 0.3 mm 3 mps 762 mmHg 80%
    21:00 +13°C° 0.3 mm 3 mps 762 mmHg 78%
    22:00 +13°C° 0.3 mm 3 mps 762 mmHg 77%
    23:00 +12°C° 0.4 mm 3 mps 762 mmHg 77%

    3 April, Monday

    Time Temperature Precipitation Wind Pressure Humidity
    00:00 +12°C° 0.4 mm 3 mps 761 mmHg 78%
    01:00 +13°C° 0.4 mm 2 mps 761 mmHg 78%
    02:00 +12°C° 0.4 mm 3 mps 761 mmHg 79%
    03:00 +12°C° 0.4 mm 3 mps 761 mmHg 80%
    04:00 +12°C° 0.4 mm 3 mps 761 mmHg 81%
    05:00 +12°C° 0.4 mm 3 mps 761 mmHg 80%
    06:00 +12°C° 0.4 mm 3 mps 761 mmHg 78%
    07:00 +12°C° 0.4 mm 3 mps 761 mmHg 76%
    08:00 +13°C° 0 mm 3 mps 761 mmHg 68%
    09:00 +14°C° 0 mm 3 mps 761 mmHg 60%
    10:00 +16°C° 0 mm 3 mps 761 mmHg 51%
    11:00 +17°C° 0.1 mm 3 mps 760 mmHg 51%
    12:00 +18°C° 0.1 mm 2 mps 760 mmHg 50%
    13:00 +18°C° 0.1 mm 2 mps 760 mmHg 50%
    14:00 +17°C° 0.2 mm 2 mps 760 mmHg 56%
    15:00 +16°C° 0.2 mm 2 mps 760 mmHg 62%
    16:00 +16°C° 0.2 mm 2 mps 760 mmHg 68%
    17:00 +15°C° 0.1 mm 2 mps 760 mmHg 73%
    18:00 +14°C° 0.1 mm 2 mps 760 mmHg 78%
    19:00 +13°C° 0.1 mm 2 mps 760 mmHg 84%
    20:00 +12°C° 0.1 mm 2 mps 760 mmHg 85%
    21:00 +12°C° 0.1 mm 1 mps 760 mmHg 86%
    22:00 +12°C° 0.1 mm 1 mps 760 mmHg 87%
    23:00 +11°C° 0 mm 1 mps 760 mmHg 87%
    Show more